Retour au catalogue

FREJA

ActifScienceLEO
NORAD 22161·PAYLOAD·🇸🇪 Sweden

Lancé Oct 6, 1992 depuis Jiuquan Satellite Launch Center

Loading…

Prochains Passages (prochaines 24 heures)

TLE

FraisSource: Space-Track

Époque: Sep 14, 2026, 06:08 UTC

1 22161U 92064A   26257.25563112  .00000094  00000-0  90697-4 0  9998
2 22161  63.0021  12.8779 0725287 248.6635 103.5515 13.32874755645836

Suivez FREJA en temps réel avec AllMySat

Download on the App Store